User: anonymous   Login
Location: Pl�tzky
(52.0521°N, 11.8020°E)
Time: 21:00:05
(UTC+00:00)
Language:

COSMO-SKYMED 1 - Orbit

View from above orbital plane
View from above orbital plane
View from above satellite
View from above satellite

Ground track
Ground track

The orbit data is extracted from the following two-line orbital elements,

1 31598U 07023A   20020.48212293  .00000341  00000-0  49442-4 0  9998
2 31598  97.8845 205.7971 0001425  89.0075 271.1317 14.82158402682767
Epoch (UTC): 20 January 2020 11:34:15
Eccentricity: 0.0001425
inclination: 97.8845°
perigee height: 621 km
apogee height: 623 km
right ascension of ascending node: 205.7971°
argument of perigee: 89.0075°
revolutions per day: 14.82158402
mean anomaly at epoch: 271.1317°
orbit number at epoch: 68276

The dashed part of the orbit path shows where the satellite is in the earth's shadow,  

DLR